Regional Weather Roundup
Issued by NWS

Home | Current Version | Previous Version | Graphics & Text | Print | Product List | Glossary Off
Versions: 1 2 3 4 5 6 7 8 9 10 11 12 13 14 15 16 17 18 19 20 21 22 23 24 25 26 27 28 29 30 31 32 33 34 35 36 37 38 39 40 41 42 43 44 45 46 47 48 49 50

000
ASUS43 KMKX 302100
RWRWI

WISCONSIN REGIONAL WEATHER ROUNDUP
NATIONAL WEATHER SERVICE MILWAUKEE/SULLIVAN WI
400 PM CDT THU OCT 30 2014

NOTE: "FAIR" INDICATES FEW OR NO CLOUDS BELOW 12,000 FEET WITH NO
SIGNIFICANT WEATHER AND/OR OBSTRUCTIONS TO VISIBILITY.

WIZ001-002-006>008-014>016-023>028-302200-
NORTHWEST WISCONSIN

CITY           SKY/WX    TMP DP  RH WIND       PRES   REMARKS
SUPERIOR ARPT  CLOUDY    45  33  63 NW8       30.09S
ASHLAND        CLOUDY    43  33  68 NW10      30.07S
HAYWARD        CLOUDY    42  31  64 VRB6      30.08R
SIREN          CLOUDY    42  32  68 NW10G16   30.10S
CUMBERLAND     LGT RAIN  39  34  81 NW10      30.08S WCI  32
RICE LAKE      CLOUDY    42  34  72 NW8       30.09S
CHETEK         CLOUDY    43  35  73 NW6       30.08S
LADYSMITH      CLOUDY    43  35  72 W10       30.07S
EAU CLAIRE     NOT AVBL
MENOMONIE      CLOUDY    48  34  57 N8        30.07S
NEW RICHMOND   CLOUDY    45  33  62 N10       30.11R
OSCEOLA        CLOUDY    44  35  70 N8        30.14R
$$

WIZ003>005-009-010-017-018-302200-
NORTH CENTRAL WISCONSIN

CITY           SKY/WX    TMP DP  RH WIND       PRES   REMARKS
MANITOWISH WTR CLOUDY    38  32  78 W8        30.01F WCI  32
ARBOR VITAE    CLOUDY    42  34  75 NW6       30.01S
WOODRUFF       CLOUDY    42  34  75 NW6       30.01S
RHINELANDER    CLOUDY    41  31  67 W8        30.02S
EAGLE RIVER    CLOUDY    39  30  69 NW7       30.00F WCI  34
LAND O LAKES   CLOUDY    39  32  76 W5        30.01S
PHILLIPS       CLOUDY    40  32  71 NW8       30.03S WCI  35
TOMAHAWK       CLOUDY    42  32  68 CALM      30.02F
MEDFORD        DRIZZLE   41  33  75 NW8       30.03S
MERRILL        CLOUDY    44  33  66 W9        30.02S
$$

WIZ029-030-035-036-043>047-302200-
CENTRAL WISCONSIN

CITY           SKY/WX    TMP DP  RH WIND       PRES   REMARKS
WAUSAU         CLOUDY    44  33  65 W8        30.02R
MOSINEE        CLOUDY    45  36  70 W9        30.04R
MARSHFIELD     CLOUDY    46  34  62 NW12      30.04R
STEVENS POINT  CLOUDY    45  33  63 W8        30.03S
WAUPACA        CLOUDY    51  35  53 W9        30.03S
WAUTOMA        NOT AVBL
WISC RAPIDS    CLOUDY    49  34  56 NW12      30.05R
CAMP DOUGLAS   NOT AVBL
$$

WIZ011>013-019>022-031-037>040-048>050-302200-
NORTHEAST WISCONSIN

CITY           SKY/WX    TMP DP  RH WIND       PRES   REMARKS
ANTIGO         CLOUDY    43  33  68 NW7       30.00F
SHAWANO        CLOUDY    48  34  58 NW6       30.01F
OCONTO         CLOUDY    46  34  64 W10       30.01S
STURGEON BAY   PTSUNNY   45  34  65 W9        30.01S
GREEN BAY      CLOUDY    47  36  65 W7        30.02S
MANITOWOC      NOT AVBL
APPLETON       PTSUNNY   48  34  57 W12       30.02S
CLINTONVILLE   CLOUDY    48  32  53 W12G18    30.02S
OSHKOSH        CLOUDY    49  35  58 W6        30.02F
$$

WIZ032>034-041-042-053>061-302200-
SOUTHWEST WISCONSIN

CITY           SKY/WX    TMP DP  RH WIND       PRES   REMARKS
LA CROSSE      CLOUDY    47  37  68 S3        30.07S
SPARTA         CLOUDY    47  35  63 SW3       30.06F
VIROQUA        CLOUDY    45  36  70 W5        30.06S
BOSCOBEL       CLOUDY    50  36  58 CALM      30.07S
PRAIRIE DU CHI CLOUDY    49  36  61 CALM      30.06S
PLATTEVILLE    CLOUDY    49  37  63 NW3       30.07R
$$

WIZ056-057-062-063-064-067-068-302200-
SOUTH CENTRAL WISCONSIN

CITY           SKY/WX    TMP DP  RH WIND       PRES   REMARKS
REEDSBURG      CLOUDY    46  37  69 W6        30.06R
BARABOO/DELLS  CLOUDY    47  35  60 W9        30.05S
LONE ROCK      NOT AVBL
MINERAL POINT  CLOUDY    50  34  53 CALM      30.06R
MADISON        CLOUDY    50  34  54 W6        30.06R
MIDDLETON      CLOUDY    51  34  52 NW5       30.05S
WATERTOWN      CLOUDY    48  35  60 W5        30.04S
MONROE         CLOUDY    48  36  61 CALM      30.05S
JANESVILLE     CLOUDY    52  34  50 W6        30.05S
$$

WIZ051-052-058>065-066-070>072-302200-
SOUTHEAST WISCONSIN

CITY           SKY/WX    TMP DP  RH WIND       PRES   REMARKS
MILWAUKEE      PTSUNNY   51  32  48 W8        30.04S
WAUKESHA       CLOUDY    46  34  61 W8        30.05R
MILWAUKEE/TIMM CLOUDY    50  32  50 W9        30.05S
RACINE         PTSUNNY   51  34  52 W5        30.06S
BURLINGTON     CLOUDY    49  32  52 W8        30.04S
KENOSHA        CLOUDY    51  35  54 W10       30.05S
FOND DU LAC    CLOUDY    49  34  56 W6        30.04R
SHEBOYGAN      CLOUDY    49  34  56 NW7       30.03S
WEST BEND      CLOUDY    48  32  53 W8        30.03S
JUNEAU         CLOUDY    47  33  58 W5        30.05S
$$

LSZ147-162-302200-
LAKE SUPERIOR

STATION/POSITION TIME  TEMP    WIND        PRES    WAVE
                       AIR SEA DIR/SP/G            HT/PER
                 (UTC) (F)     (DEG/KT/KT) (MB)    (FT/S)
W MID LAKE BUOY  1950   43 45  280/ 10/ 12 1016.8F   1/ 3
DEVILS ISLAND    2000   43     300/ 12/ 14 1018.0F
PORT WING        2000   43     290/ 12/ 15 1018.6F
SAXON HARBOR     2000   43     290/  8/ 13 1017.6
$$

LMZ867-665-643>646-302200-
LAKE MICHIGAN

STATION/POSITION TIME  TEMP    WIND        PRES    WAVE
                       AIR SEA DIR/SP/G            HT/PER
                 (UTC) (F)     (DEG/KT/KT) (MB)    (FT/S)
CHAMBERS ISLAND  2000   46     240/  5/ 10 1016.3F
N MID LAKE BUOY  1950   45 51  250/ 16/ 17 1015.9F   2/ 4
NORTHPORT PIER   2000   46     260/  2/ 13 1015.9F
KEWAUNEE LAKESHO 2000   47     260/  7/ 10 1015.5F
SHEBOYGAN LAKESH 2000   49 50  290/ 10/ 11 1017.5F
PORT WASHINGTON  2000   53     290/  7/ 11 1017.6F
ATWATER BUOY     2000   50     270/  8/ 10 1018.2F
MILWAUKEE LAKESH 2000   50     270/  9/ 12   N/A
S MID LAKE BUOY  1950   48 53  230/ 10/ 12 1018.3F   2/ 4
KENOSHA   LAKESH 2000   51     240/  8/ 11 1017.6F
$$

TC  - TEMPERATURE IN CELSIUS
VSB - VISIBILITY IN STATUTE MILES
WCI - WIND CHILL INDEX
HX  - HEAT INDEX




USA.gov is the U.S. government's official web portal to all federal, state and local government web resources and services.